ERS-1 (21574 NORAD) Tracking and Keplerian Element Data

This shows tracking and keplerian element data for the satellite.

Feedback or suggestion? Click here.




ElementValue
Catalog21574
NameERS-1
Epoch Orbit43600
Epoch Day348.9195973
Epoch Year2018
RAAN294.4627
Inclination98.5269
Eccentricity0.003384
Argument of Perigee125.4975
Mean Anonmoly234.9376
Mean Motion14.37673278
Decay Rate1.6E-07
L11 21574U 91050A 18348.91959730 .00000016 00000-0 19756-4 0 9990
L22 21574 98.5269 294.4627 0033840 125.4975 234.9376 14.37673278436000

Live tracking and technical data element details for ERS-1 (NORAD 21574). ERS-1 can be tracked NOW for your location showing map with azimuth and elevation plus other details from your city location.

Track the satellite on the map from your city or location and see movement details for azimuth, elevation, latitude, longitude, range, height, and movement on the map or in text.







IsCatalogInMostPopularTable: catalog: 21574, numindb: 34
Update: records affected: 1



GetName: 21574 ERS-1

Hit Count: updated at: Sun, 16 Dec 2018 09:57:37 GMT